Location: Nakusp
(50.2330°N, 117.8000°W)
Time: 02:26:25
(UTC-07:00)

Cosmos 1939 Rocket - Visible Passes

Search period start: 31 July 2014 00:00
Search period end: 10 August 2014 00:00
Orbit: 545 x 591 km, 97.6° (Epoch: 31 July)

Date Brightness Start Highest point End Pass type
(mag) Time Alt. Az. Time Alt. Az. Time Alt. Az.
31 Jul 3.1 21:29:07 10° S 21:33:09 72° WSW 21:37:16 10° NNW visible
01 Aug 3.2 21:30:22 10° S 21:34:24 70° WSW 21:38:31 10° NNW visible
02 Aug 3.2 21:31:37 10° S 21:35:39 68° WSW 21:39:46 10° NNW visible
03 Aug 3.3 21:32:53 10° S 21:36:54 66° WSW 21:41:02 10° NNW visible
04 Aug 3.3 21:34:08 10° S 21:38:09 64° WSW 21:42:17 10° NNW visible
05 Aug 3.4 21:35:23 10° S 21:39:25 62° W 21:43:32 10° NNW visible
06 Aug 3.4 21:36:38 10° S 21:40:40 60° W 21:44:47 10° NNW visible
07 Aug 3.5 21:37:53 10° S 21:41:55 58° W 21:46:02 10° NNW visible
08 Aug 3.5 21:39:09 10° S 21:43:10 56° W 21:47:17 10° NNW visible
09 Aug 3.6 21:40:24 10° S 21:44:25 55° W 21:48:31 10° NNW visible
